When you browse on this site, cookies collect data to enhance your experience and personalize the content and advertising you see.
Visit our Privacy Policy to learn more. By continuing to use the site, you agree to this use of cookies and data.
  • en Belgique
  • Liste des pays
  • À 7 jours
  • Température de l'eau
  • Carte météo
  • Widgets météo
  • user-avatar
    Se connecter

    Météo par heure à Crète

    Ce jour, 26 Janvier, Dimanche

    Heure Température Précipitation Vent Pression Humidité
    00:00 +5°C° 0 mm 2 m/s 716 mmHg 83%
    01:00 +5°C° 0 mm 2 m/s 716 mmHg 82%
    02:00 +6°C° 0 mm 2 m/s 715 mmHg 81%
    03:00 +5°C° 0 mm 2 m/s 715 mmHg 82%
    04:00 +5°C° 0 mm 2 m/s 715 mmHg 82%
    05:00 +5°C° 0 mm 2 m/s 715 mmHg 82%
    06:00 +6°C° 0 mm 2 m/s 715 mmHg 80%
    07:00 +6°C° 0 mm 2 m/s 715 mmHg 78%
    08:00 +6°C° 0 mm 2 m/s 715 mmHg 76%
    09:00 +8°C° 0 mm 2 m/s 715 mmHg 72%
    10:00 +10°C° 0 mm 2 m/s 716 mmHg 67%
    11:00 +13°C° 0 mm 2 m/s 716 mmHg 62%
    12:00 +13°C° 0 mm 2 m/s 716 mmHg 64%
    13:00 +13°C° 0 mm 2 m/s 715 mmHg 65%
    14:00 +12°C° 0 mm 3 m/s 715 mmHg 66%
    15:00 +13°C° 0 mm 2 m/s 715 mmHg 71%
    16:00 +12°C° 0 mm 2 m/s 715 mmHg 75%
    17:00 +10°C° 0 mm 2 m/s 714 mmHg 79%
    18:00 +9°C° 0 mm 2 m/s 714 mmHg 78%
    19:00 +9°C° 0 mm 2 m/s 714 mmHg 77%
    20:00 +8°C° 0 mm 2 m/s 714 mmHg 77%
    21:00 +8°C° 0 mm 2 m/s 714 mmHg 74%
    22:00 +8°C° 0 mm 2 m/s 714 mmHg 72%
    23:00 +8°C° 0 mm 2 m/s 714 mmHg 70%

    Demain, 27 Janvier, Lundi

    Heure Température Précipitation Vent Pression Humidité
    00:00 +8°C° 0 mm 2 m/s 713 mmHg 70%
    01:00 +8°C° 0 mm 2 m/s 713 mmHg 71%
    02:00 +8°C° 0 mm 2 m/s 713 mmHg 71%
    03:00 +8°C° 0 mm 2 m/s 713 mmHg 73%
    04:00 +8°C° 0 mm 2 m/s 712 mmHg 74%
    05:00 +8°C° 0 mm 3 m/s 712 mmHg 76%
    06:00 +8°C° 0 mm 3 m/s 712 mmHg 77%
    07:00 +8°C° 0 mm 3 m/s 712 mmHg 77%
    08:00 +8°C° 0 mm 3 m/s 712 mmHg 77%
    09:00 +10°C° 0 mm 3 m/s 712 mmHg 75%
    10:00 +11°C° 0 mm 4 m/s 712 mmHg 72%
    11:00 +12°C° 0 mm 4 m/s 712 mmHg 69%
    12:00 +12°C° 0 mm 4 m/s 712 mmHg 65%
    13:00 +13°C° 0 mm 4 m/s 712 mmHg 62%
    14:00 +13°C° 0 mm 4 m/s 711 mmHg 59%
    15:00 +12°C° 0 mm 3 m/s 711 mmHg 64%
    16:00 +11°C° 0 mm 3 m/s 710 mmHg 69%
    17:00 +10°C° 0 mm 3 m/s 710 mmHg 74%
    18:00 +10°C° 0 mm 3 m/s 710 mmHg 75%
    19:00 +9°C° 0 mm 3 m/s 710 mmHg 76%
    20:00 +8°C° 0 mm 2 m/s 710 mmHg 77%
    21:00 +8°C° 0 mm 3 m/s 710 mmHg 75%
    22:00 +8°C° 0 mm 3 m/s 710 mmHg 74%
    23:00 +8°C° 0 mm 3 m/s 710 mmHg 72%

    Après-demain, 28 Janvier, Mardi

    Heure Température Précipitation Vent Pression Humidité
    00:00 +8°C° 0 mm 3 m/s 709 mmHg 78%
    01:00 +8°C° 0 mm 3 m/s 709 mmHg 83%
    02:00 +8°C° 0 mm 3 m/s 709 mmHg 89%
    03:00 +7°C° 0 mm 3 m/s 709 mmHg 90%
    04:00 +7°C° 0 mm 3 m/s 708 mmHg 91%
    05:00 +7°C° 0 mm 3 m/s 708 mmHg 92%
    06:00 +7°C° 0 mm 3 m/s 708 mmHg 90%
    07:00 +7°C° 0 mm 3 m/s 708 mmHg 88%
    08:00 +7°C° 0 mm 3 m/s 709 mmHg 86%
    09:00 +9°C° 0 mm 3 m/s 709 mmHg 79%
    10:00 +10°C° 0 mm 3 m/s 709 mmHg 72%
    11:00 +12°C° 0 mm 4 m/s 710 mmHg 65%
    12:00 +12°C° 0 mm 4 m/s 710 mmHg 63%
    13:00 +12°C° 0 mm 4 m/s 710 mmHg 61%
    14:00 +13°C° 0 mm 4 m/s 709 mmHg 59%
    15:00 +12°C° 0 mm 4 m/s 709 mmHg 63%
    16:00 +12°C° 0 mm 4 m/s 709 mmHg 67%
    17:00 +11°C° 0 mm 4 m/s 709 mmHg 71%
    18:00 +10°C° 0 mm 3 m/s 709 mmHg 74%
    19:00 +9°C° 0 mm 3 m/s 709 mmHg 76%
    20:00 +7°C° 0 mm 3 m/s 710 mmHg 78%
    21:00 +7°C° 0 mm 3 m/s 710 mmHg 76%
    22:00 +7°C° 0 mm 3 m/s 710 mmHg 74%
    23:00 +7°C° 0 mm 2 m/s 710 mmHg 71%

    29 Janvier, Mercredi

    Heure Température Précipitation Vent Pression Humidité
    00:00 +7°C° 0 mm 3 m/s 709 mmHg 74%
    01:00 +5°C° 0 mm 3 m/s 709 mmHg 76%
    02:00 +5°C° 0 mm 4 m/s 709 mmHg 78%
    03:00 +5°C° 0 mm 4 m/s 709 mmHg 81%
    04:00 +5°C° 0 mm 4 m/s 709 mmHg 84%
    05:00 +5°C° 0 mm 4 m/s 709 mmHg 87%
    06:00 +6°C° 0 mm 4 m/s 709 mmHg 87%
    07:00 +6°C° 0 mm 4 m/s 709 mmHg 87%
    08:00 +6°C° 0 mm 4 m/s 709 mmHg 87%
    09:00 +8°C° 0 mm 4 m/s 709 mmHg 81%
    10:00 +10°C° 0 mm 4 m/s 710 mmHg 75%
    11:00 +12°C° 0 mm 4 m/s 710 mmHg 68%
    12:00 +12°C° 0 mm 4 m/s 710 mmHg 68%
    13:00 +13°C° 0 mm 5 m/s 709 mmHg 68%
    14:00 +13°C° 0 mm 5 m/s 709 mmHg 67%
    15:00 +12°C° 0 mm 5 m/s 709 mmHg 72%
    16:00 +12°C° 0 mm 5 m/s 709 mmHg 77%
    17:00 +10°C° 0 mm 5 m/s 709 mmHg 82%
    18:00 +10°C° 0 mm 5 m/s 709 mmHg 84%
    19:00 +9°C° 0 mm 5 m/s 709 mmHg 86%
    20:00 +8°C° 0 mm 5 m/s 709 mmHg 89%
    21:00 +8°C° 0 mm 5 m/s 709 mmHg 89%
    22:00 +8°C° 0 mm 5 m/s 709 mmHg 89%
    23:00 +7°C° 0 mm 5 m/s 709 mmHg 90%

    30 Janvier, Jeudi

    Heure Température Précipitation Vent Pression Humidité
    00:00 +7°C° 0 mm 5 m/s 709 mmHg 90%
    01:00 +7°C° 0 mm 5 m/s 709 mmHg 90%
    02:00 +7°C° 0 mm 5 m/s 708 mmHg 90%
    03:00 +7°C° 0 mm 5 m/s 708 mmHg 90%
    04:00 +6°C° 0 mm 4 m/s 708 mmHg 90%
    05:00 +6°C° 0 mm 4 m/s 708 mmHg 90%
    06:00 +6°C° 0 mm 4 m/s 708 mmHg 88%
    07:00 +7°C° 0 mm 3 m/s 708 mmHg 87%
    08:00 +7°C° 0 mm 3 m/s 708 mmHg 85%
    09:00 +8°C° 0 mm 4 m/s 709 mmHg 76%
    10:00 +11°C° 0 mm 4 m/s 709 mmHg 67%
    11:00 +13°C° 0 mm 4 m/s 709 mmHg 58%
    12:00 +13°C° 0 mm 5 m/s 709 mmHg 60%
    13:00 +13°C° 0 mm 5 m/s 709 mmHg 63%
    14:00 +13°C° 0 mm 6 m/s 708 mmHg 65%
    15:00 +13°C° 0.1 mm 6 m/s 708 mmHg 70%
    16:00 +12°C° 0.1 mm 5 m/s 708 mmHg 76%
    17:00 +10°C° 0.1 mm 5 m/s 708 mmHg 81%
    18:00 +9°C° 0 mm 5 m/s 707 mmHg 83%
    19:00 +8°C° 0 mm 5 m/s 707 mmHg 86%
    20:00 +8°C° 0 mm 5 m/s 707 mmHg 89%
    21:00 +7°C° 0 mm 5 m/s 707 mmHg 89%
    22:00 +7°C° 0 mm 5 m/s 707 mmHg 88%
    23:00 +7°C° 0 mm 5 m/s 707 mmHg 88%

    31 Janvier, Vendredi

    Heure Température Précipitation Vent Pression Humidité
    00:00 +5°C° 0 mm 6 m/s 707 mmHg 87%
    01:00 +5°C° 0 mm 6 m/s 707 mmHg 86%
    02:00 +5°C° 0 mm 6 m/s 708 mmHg 84%
    03:00 +4°C° 0.1 mm 7 m/s 708 mmHg 85%
    04:00 +4°C° 0.1 mm 7 m/s 708 mmHg 85%
    05:00 +4°C° 0.1 mm 8 m/s 709 mmHg 86%
    06:00 +4°C° 0.1 mm 8 m/s 709 mmHg 84%
    07:00 +2°C° 0.1 mm 8 m/s 709 mmHg 81%
    08:00 +3°C° 0.1 mm 7 m/s 710 mmHg 79%
    09:00 +4°C° 0 mm 7 m/s 710 mmHg 75%
    10:00 +4°C° 0 mm 7 m/s 711 mmHg 70%
    11:00 +5°C° 0 mm 7 m/s 711 mmHg 66%
    12:00 +5°C° 0 mm 7 m/s 711 mmHg 61%
    13:00 +6°C° 0 mm 7 m/s 711 mmHg 56%
    14:00 +7°C° 0 mm 6 m/s 711 mmHg 51%
    15:00 +5°C° 0 mm 6 m/s 711 mmHg 53%
    16:00 +6°C° 0 mm 5 m/s 711 mmHg 55%
    17:00 +5°C° 0 mm 5 m/s 711 mmHg 57%
    18:00 +4°C° 0 mm 4 m/s 711 mmHg 60%
    19:00 +3°C° 0 mm 4 m/s 711 mmHg 62%
    20:00 +3°C° 0 mm 3 m/s 711 mmHg 64%
    21:00 +2°C° 0 mm 3 m/s 711 mmHg 64%
    22:00 +2°C° 0 mm 3 m/s 711 mmHg 63%
    23:00 +2°C° 0 mm 3 m/s 711 mmHg 63%
    Voir plus